Find Starlink 34963

NORAD ID: 65242 Int'l Des: 2025-179 Owner: SPXS Country: US Constellation: starlink operational
LEOCIRCULARRETROGRADESSO

現在のビュー

3D地球を読み込み中...

About Starlink 34963

Starlink 34963 (NORAD 65242) is a starlink constellation satellite (v2 mini) launched Aug 18, 2025 by SPXS of US. It operates in LEO, CIRCULAR, RETROGRADE, SSO orbit with a mass of 575.00 kg.

次回通過

Passes for default location (London). Set your location on the main map for personalized predictions.

高度履歴

Loading altitude history...

軌道要素

1 65242U 25179H 26237.12933544 .00016490 00000-0 51181-3 0 9993
2 65242 97.2819 276.8674 0001279 110.1888 249.9493 15.33456230 57423
Epoch: Aug 25, 2026 • Age: 19 hours

現在のステータス

高度 468.9 km
遠地点 / 近地点 N/A
速度 7.64 km/s
衛星直下点 31.57°N, 149.83°E
打ち上げ日 Aug 18, 2025
運用期間 1 year
タイプ internet

技術仕様

分類 Payload
質量 575.00 kg
乾燥質量 530.00 kg
総質量 575.00 kg
長さ 0.30 m
直径 4.10 m
スパン 29.00 m
形状 Box + pan
製造者 SPXS
バスタイプ Starlink V2MO
フェーズステータス In Orbit
所有者/国 SPXS/US

Most Searched